User: anonymous   Login
Location: Campillo
(40.8621°N, 4.2488°W)
Time: 03:05:44
(UTC+00:00)
Language:

Cosmos 2154 Rocket - Orbit

View from above orbital plane
View from above orbital plane
View from above satellite
View from above satellite

Ground track
Ground track

The orbit data is extracted from the following two-line orbital elements,

1 21667U 91059B   21207.60104247  .00000003  00000-0 -12803-4 0  9994
2 21667  82.9078 331.7718 0021504  34.6601 335.9126 13.75099771501633
Epoch (UTC): 26 July 2021 14:25:30
Eccentricity: 0.0021504
inclination: 82.9078°
perigee height: 965 km
apogee height: 997 km
right ascension of ascending node: 331.7718°
argument of perigee: 34.6601°
revolutions per day: 13.75099771
mean anomaly at epoch: 335.9126°
orbit number at epoch: 50163

The dashed part of the orbit path shows where the satellite is in the earth's shadow,  

DLR